Regional Weather Roundup
Issued by NWS

Home | Current Version | Previous Version | Text Only | Print | Product List | Glossary Off
Versions: 1 2 3 4 5 6 7 8 9 10 11 12 13 14 15 16 17 18 19 20 21 22 23 24 25 26 27 28 29 30 31 32 33 34 35 36 37 38 39 40 41 42 43 44 45 46 47 48 49 50

000
ASUS43 KLMK 281810
RWRKY
KENTUCKY REGIONAL WEATHER ROUNDUP
NATIONAL WEATHER SERVICE LOUISVILLE KY
100 PM EST SAT FEB 28 2015

NOTE "FAIR" INDICATES FEW OR NO CLOUDS BELOW 12,000 FEET
WITH NO SIGNIFICANT WEATHER AND/OR OBSTRUCTIONS TO VISIBILITY.

KYZ001>023-026-027-061>063-070>075-281900-
WESTERN AND SOUTH CENTRAL KENTUCKY

CITY           SKY/WX    TMP DP  RH WIND       PRES   REMARKS
PADUCAH        PTSUNNY   29  14  53 E7        30.58F WCI  22
HENDERSON      CLOUDY    28  12  50 NE9       30.62F WCI  20
OWENSBORO      PTSUNNY   31  14  49 SE6       30.62F WCI  25
HOPKINSVILLE   CLOUDY    31  17  56 E8        30.57F WCI  23
BOWLING GREEN  PTSUNNY   35  17  47 NE7       30.60F WCI  29
GLASGOW        CLOUDY    34  17  49 E6        30.58F WCI  29
$$

KYZ024-025-028>034-038-045-046-053-281900-
NORTH CENTRAL KENTUCKY

CITY           SKY/WX    TMP DP  RH WIND       PRES   REMARKS
LOUISVILLE/SDF PTSUNNY   31  11  43 VRB5      30.64F WCI  26
LOUISVILLE/LOU PTSUNNY   30  11  45 NE5       30.64F WCI  25
FORT KNOX      CLOUDY    30  12  46 NE5       30.60F WCI  25
$$

KYZ035>037-039>044-047>052-055>060-089>105-281900-
NORTHEAST KENTUCKY

CITY           SKY/WX    TMP DP  RH WIND       PRES   REMARKS
LEXINGTON      MOSUNNY   30  14  51 E10       30.61F WCI  21
COVINGTON      PTSUNNY   24   6  46 E6        30.65F WCI  17
FRANKFORT        N/A     28  11  48 NE8       30.61F WCI  20
$$

KYZ054-064>069-076>088-106>120-281900-
SOUTHEAST KENTUCKY

CITY           SKY/WX    TMP DP  RH WIND       PRES   REMARKS
JACKSON        CLOUDY    34  12  40 CALM      30.59F
LONDON         MOSUNNY   35  14  42 VRB6      30.58F WCI  30
SOMERSET       CLOUDY    36  14  41 CALM      30.59F
MIDDLESBORO    SUNNY     38  20  49 NE6       30.58F WCI  33
MONTICELLO     MOCLDY    39  18  43 VRB5      30.59F
$$




USA.gov is the U.S. government's official web portal to all federal, state and local government web resources and services.